www.pogodaiklimat.ru

Погода и климат >> Архив погоды >> Парагвай >> Марискал-Эстигар


ПОГОДА в Марискал-Эстигаре

  • Прогноз погоды в Марискал-Эстигаре
  • Монитор погоды в Марискал-Эстигаре

АРХИВ ПОГОДЫ в Марискал-Эстигаре

Время (UTC), дата Ветер
(напр.,м/с)
 
Видим.   Явления Облачность Т
(С)
Тd
(С)
f
(%)
Тe
(С)
Тes
(С)
Комфортность P
(гПа)
Po
(гПа)
Тmin
(С)
Tmax
(С)
R
(мм)
R24
(мм)
S
(см)
21 9.01 С 9 20 км 6/5 1200 м
[Cu Sc Ci sp]
+38.0 +18.1 31 +41 +42 опасность
перегрева
999.9 981.7
00 10.01 СВ 8 20 км 3/0 2000 м
[Ac trans]
+34.0 +18.6 40 +39 +39 очень
душно
1002.1 983.7 +39.0
03 10.01 СВ 6 20 км ясно +31.2 +18.3 46 +36 +36 очень
душно
1004.6 985.9
06 10.01 С 8 20 км ясно +30.2 +19.1 51 +36 +36 очень
душно
1004.7 985.9
09 10.01 СВ 4 20 км 4/0
[Cs]
+27.0 +20.7 68 +34 +34 очень
душно
1004.4 984.5
12 10.01 С 6 20 км 8/0
[Cs]
+29.2 +21.7 64 +37 +40 очень
душно
1006.2 987.4 +26.2
15 10.01 С 6 20 км 8/3 1200 м
[Cu hum Ac cast Cs]
+35.4 +18.0 36 +39 +43 очень
душно
1006.3 987.8
18 10.01 СВ 8 20 км 6/6 1200 м
[Cu Sc]
+38.2 +15.8 27 +40 +41 очень
душно
1003.1 984.9
21 10.01 СВ 6 20 км 8/8 900 м
[Cu Sc]
+37.8 +16.3 28 +40 +40 очень
душно
1002.7 984.5
00 11.01 Ю 8 20 км зарница {ливн. осадки} 10/10 300 м
[Cb cap]
+23.2 +21.4 90 +31 +31 очень
душно
1009.1 989.9 +39.5 0.1
09 11.01 ЮЗ 6 8000 м слаб. морось 10/10 180 м
[St]
+20.4 +19.9 97 +24 +24 комфорт 1012.4 992.9 0.2
12 11.01 ЮЗ 4 20 км 10/10 270 м
[St]
+21.0 +20.9 99 +27 +27 душно 1014.6 995.0 +20.4 33
15 11.01 ЮЗ 4 20 км 10/10 270 м
[St]
+21.4 +21.4 100 +27 +27 душно 1014.4 995.8
18 11.01 ЮЗ 4 20 км 10/10 300 м
[Sc]
+22.8 +21.4 92 +30 +30 очень
душно
1013.4 994.1
21 11.01 ЮЗ 4 20 км 9/9 300 м
[Sc]
+23.6 +21.2 86 +30 +30 очень
душно
1011.1 991.8
06 12.01 ЮЗ 2 20 км 10/8 450 м
[Sc Ac As]
+21.0 +20.8 99 +27 +27 душно 1012.9 993.4
09 12.01 ЮЗ 2 20 км 9/4 300 м
[Cu Sc Ac As]
+21.0 +20.8 99 +27 +27 душно 1013.9 993.9
12 12.01 ЮЗ 2 20 км 8/4 450 м
[Cu Sc Ac cuf]
+22.2 +20.6 91 +29 +31 очень
душно
1014.5 995.0 +21.0
18 12.01 С 2 20 км 5/3 900 м
[Cu med, cong Ac trans]
+30.8 +22.1 60 +40 +50 очень
душно
1010.6 991.8
21 12.01 С 3 20 км 4/3 900 м
[Cu med, cong Ac trans]
+33.2 +19.5 45 +39 +41 очень
душно
1007.1 988.5
00 13.01 В 2 20 км 4/3 900 м
[Sc Ac trans]
+28.8 +23.4 73 +39 +39 очень
душно
1008.1 989.3 +33.6
06 13.01 СВ 3 20 км 3/3 1050 м
[Sc]
+25.8 +21.8 79 +33 +33 очень
душно
1009.8 990.7
12 13.01 СВ 2 20 км 3/0 2000 м
[Ac trans Ci fib]
+27.4 +22.5 75 +36 +42 очень
душно
1011.5 992.4 +22.2
15 13.01 СВ 5 20 км 3/3 1200 м
[Cu hum]
+32.6 +21.1 51 +40 +48 очень
душно
1010.9 992.2
21 13.01 СВ 5 20 км 4/3 1050 м
[Cu med, cong Ac trans]
+36.0 +19.7 39 +42 +43 опасность
перегрева
1005.2 986.8
06 14.01 С 5 20 км ясно +26.2 +21.6 76 +34 +34 очень
душно
1009.3 990.2
09 14.01 С 5 20 км ясно +26.2 +21.6 76 +34 +34 очень
душно
1009.3 990.2
12 14.01 С 4 20 км 5/0 2000 м
[Ac trans Cs]
+26.8 +22.5 77 +35 +39 очень
душно
1011.3 992.2 +24.5
15 14.01 СВ 6 20 км 5/3 1200 м
[Cu hum Ac trans Cs]
+33.2 +21.0 49 +41 +45 опасность
перегрева
1010.8 992.1
18 14.01 СВ 5 20 км 5/3 1200 м
[Cu med, cong Ac trans Cs]
+36.6 +19.4 37 +42 +47 опасность
перегрева
1007.5 989.2
00 15.01 штиль 0 20 км 4/0
[Ac trans]
+32.2 +21.8 54 +41 +41 опасность
перегрева
1006.2 987.6 +37.5
12 15.01 С 4 20 км 5/0
[Cs]
+28.4 +21.8 67 +36 +41 очень
душно
1009.7 990.7 +26.5
15 15.01 С 6 20 км 6/3 1200 м
[Cu Sc Cs]
+34.6 +18.6 39 +39 +44 очень
душно
1008.8 990.2
18 15.01 С 6 20 км 8/4 1200 м
[Cu Sc Cs]
+37.2 +18.6 34 +41 +45 опасность
перегрева
1006.0 987.7
21 15.01 С 4 20 км 9/4 1200 м
[Cu Sc Cs]
+37.0 +18.6 34 +41 +42 опасность
перегрева
1004.0 985.7
00 16.01 штиль 0 20 км 8/3 1200 м
[Sc Ac trans Cs]
+32.0 +23.1 59 +42 +42 опасность
перегрева
1006.1 987.5 +37.6
03 16.01 С 3 20 км 5/3 1200 м
[Sc Cs]
+29.2 +21.6 64 +37 +37 очень
душно
1008.7 989.9
06 16.01 С 3 20 км зарница 1/1 1200 м
[Cb calv]
+28.6 +20.3 61 +35 +35 очень
душно
1008.4 989.6
09 16.01 С 2 20 км 3/0
[Cs]
+26.2 +21.4 75 +33 +33 очень
душно
1010.1 991.0
12 16.01 СЗ 3 20 км 6/0
[Cs]
+30.4 +22.5 63 +40 +45 очень
душно
1011.8 992.9 +25.8
15 16.01 С 8 20 км 6/5 1200 м
[Cu Sc Cs]
+34.8 +19.7 41 +40 +42 очень
душно
1010.6 992.0
18 16.01 С 8 20 км 8/6 900 м
[Cu Sc Cs]
+37.2 +19.0 35 +42 +43 опасность
перегрева
1007.2 988.9

 

Местоположение метеостанции Марискал-Эстигар (Парагвай): широта -22.01 долгота -60.60 высота над уровнем моря 172 м.

В архиве по умолчанию представлена погода в Марискал-Эстигаре за последнюю неделю. Архивные данные за месяц целиком и за предыдущие месяцы, начиная с января 2011 года, Вы можете получить, выбрав интересующий диапазон дат из раскрывающегося списка и нажав кнопку "Ввод!".


*Определитесь, кто Вы:
робот инопланетянин человек

Внимание! Время в таблицах - всемирное. Для получения местного времени необходимо прибавить поправку, которая равна -4 ч.

Смотрите также архив погоды в соседних городах и на ближайших метеорологических станциях:

Погода в Пратс-Гиле (Парагвай) (120 км)
Погода в Посо Колорадо (Парагвай) (232 км)
Погода в Пуэрто-Касадо (Парагвай) (284 км)
Погода в Лас-Ломитасе (Аргентина) (299 км)
Погода в Вилья-Монтесе (Боливия) (307 км)
Погода в Якуибе (Боливия) (315 км)
Погода в Порто Муртиньо (Мату-Гросу-ду-Сул, Бразилия) (317 км)
Погода в Тартагале (Аргентина) (336 км)
Погода в Грал Бругуез (Парагвай) (355 км)
Погода в Консепсьоне (Парагвай) (373 км)

Пояснения к столбцам:

Ветер - указаны скорость ветра в м/с - средняя за 10 мин, порывы в срок и между сроками (в фигурных скобках) и направление, откуда дует ветер: С - северный, СВ - северо-восточный, В - восточный, ЮВ - юго-восточный, Ю - южный, ЮЗ - юго-западный, З - западный, СЗ - северо-западный.
Видимость - горизонтальная дальность видимости в метрах или километрах. При видимости от 1 до 10 км при отсутствии осадков обычно наблюдается дымка, при ухудшении видимости до 1 км и менее - туман. В сухую погоду видимость может ухудшаться дымом, пылью или мглою.
Явления - указаны атмосферные явления, наблюдавшиеся в срок или в последний час перед сроком; фигурными скобками обозначены явления, наблюдавшиеся между сроками (за 1-3 часа до срока); квадратными скобками обозначены град или гололедные отложения с указанием их диаметра в мм.
Облачность - указаны через наклонную черту общая и нижняя облачность в баллах и высота нижней границы облаков в метрах; квадратными скобками обозначены формы облаков: Ci - перистые, Cs - перисто-слоистые, Cc - перисто-кучевые, Ac - высококучевые, As - высокослоистые, Sc - слоисто-кучевые, Ns - слоисто-дождевые, Cu - кучевые, Cb - кучево-дождевые. Подробнее классификацию облаков см. в Атласе облаков (PDF).
T - Температура воздуха - температура, измеренная на высоте 2 м над землей.
Td - Температура точки росы - температура, при понижении до которой содержащийся в воздухе водяной пар достигнет насыщения.
f - Относительная влажность воздуха - влажноcть воздуха, измеренная на высоте 2 м над землей.
Te - Эффективная температура - температура, которую ощущает одетый по сезону человек в тени. Характеристика душности погоды. При расчете учитывается влияние влажности воздуха и скорости ветра на теплоощущения человека.
Tes - Эффективная температура на солнце - температура, которую ощущает человек, с поправкой на солнечный нагрев. Характеристика знойности погоды. Зависит от высоты солнца над горизонтом, облачности и скорости ветра. Ночью, в пасмурную погоду, а также при ветре 12 м/с и более поправка равна нулю.
P - Атмосферное давление - приведенное к уровню моря атмосферное давление.
Po - Атмосферное давление - измеренное на уровне метеостанции атмосферное давление.
Tmin - Минимальная температура - минимум температуры воздуха на высоте 2 м над землей.
Tmax - Максимальная температура - максимум температуры воздуха на высоте 2 м над землей.
R - Количество осадков - Количество выпавших осадков за период времени, мм. При наведении курсора мыши на число - период времени, за который выпало указанное количество осадков.
R24 - Количество осадков - Количество выпавших осадков за 24 часа, мм.
S - Снежный покров - Высота снежного покрова, см. При наведении курсора мыши на число - состояние снежного покрова и степень покрытия местности в баллах.